This is the latest recevied weather packets stored in our database for station/object F4GSP-4. If no packets are shown the sender has not sent any weather packets the latest 10 day(s).
| Time | Temp. | Humidity | Pressure | Rain* | Wind** | Luminosity | Snow |
|---|---|---|---|---|---|---|---|
| 1778271829 | 10° C | 51% | 1028.1 hPa | - | - | - | - |
| 1778270929 | 10° C | 52% | 1028.1 hPa | - | - | - | - |
| 1778270029 | 10.56° C | 51% | 1027.8 hPa | - | - | - | - |
| 1778269128 | 10.56° C | 51% | 1027.7 hPa | - | - | - | - |
| 1778268228 | 10.56° C | 51% | 1027.4 hPa | - | - | - | - |
| 1778267328 | 11.11° C | 51% | 1027.3 hPa | - | - | - | - |
| 1778266428 | 11.11° C | 50% | 1027.2 hPa | - | - | - | - |
| 1778265528 | 11.67° C | 50% | 1027 hPa | - | - | - | - |
| 1778264628 | 11.67° C | 50% | 1027.1 hPa | - | - | - | - |
| 1778263727 | 11.67° C | 50% | 1027 hPa | - | - | - | - |
| 1778262827 | 11.67° C | 49% | 1026.9 hPa | - | - | - | - |
| 1778261927 | 11.67° C | 49% | 1026.8 hPa | - | - | - | - |
| 1778261027 | 12.22° C | 49% | 1026.5 hPa | - | - | - | - |
| 1778260127 | 11.67° C | 49% | 1026.5 hPa | - | - | - | - |
| 1778259227 | 11.67° C | 49% | 1026.2 hPa | - | - | - | - |
| 1778258326 | 11.11° C | 48% | 1026.1 hPa | - | - | - | - |
| 1778257426 | 11.11° C | 47% | 1025.9 hPa | - | - | - | - |
| 1778256526 | 12.22° C | 47% | 1025.4 hPa | - | - | - | - |
| 1778255626 | 12.78° C | 47% | 1025.5 hPa | - | - | - | - |
| 1778254726 | 13.89° C | 46% | 1024.9 hPa | - | - | - | - |
| 1778253826 | 13.89° C | 46% | 1024.6 hPa | - | - | - | - |
| 1778252926 | 14.44° C | 45% | 1024.4 hPa | - | - | - | - |
| 1778252025 | 16.11° C | 45% | 1024.4 hPa | - | - | - | - |
| 1778251125 | 18.33° C | 45% | 1024.2 hPa | - | - | - | - |
| 1778250225 | 21.11° C | 45% | 1024.1 hPa | - | - | - | - |
* Rain since midnight (hover to see other rain measurements)
** Current wind speed in m/s (hover to see current wind gust speed)